Regional Weather Roundup
Issued by NWS

Home | Current Version | Previous Version | Graphics & Text | Print | Product List | Glossary On
Versions: 1 2 3 4 5 6 7 8 9 10 11 12 13 14 15 16 17 18 19 20 21 22 23 24 25 26 27
000
ASUS45 KBOI 201210
RWRID

IDAHO REGIONAL WEATHER ROUNDUP
NATIONAL WEATHER SERVICE BOISE ID
600 AM MDT SUN AUG 20 2017

NOTE: "FAIR" INDICATES FEW OR NO CLOUDS BELOW 12000 FEET
WITH NO SIGNIFICANT WEATHER AND/OR OBSTRUCTIONS TO VISIBILITY

IDZ012-014-201300-
SOUTHWEST IDAHO


CITY           SKY/WX    TMP DP  RH WIND       PRES   REMARKS
BOISE          CLEAR     58  41  53 CALM      30.03R
CALDWELL       CLEAR     59  41  51 W7        30.03R
MOUNTAIN HOME  CLEAR     60  40  48 NW13      30.01R
$$

IDZ016-017-201300-
SOUTHCENTRAL IDAHO


CITY           SKY/WX    TMP DP  RH WIND       PRES   REMARKS
BURLEY         CLEAR     55  38  52 SW8       30.05R
JEROME         CLEAR     55  40  56 S7        30.06R
TWIN FALLS     CLEAR     61  32  33 S12       30.07R
$$

IDZ019>023-201300-
SOUTHEAST IDAHO


CITY           SKY/WX    TMP DP  RH WIND       PRES   REMARKS
IDAHO FALLS    CLOUDY    54  40  59 S9        30.07R
POCATELLO      CLOUDY    62  33  33 SW8       30.08R
REXBURG        CLEAR     49  41  74 CALM      30.08R
$$

IDZ006-010-011-018-031-032-201300-
CENTRAL IDAHO MOUNTAINS


CITY           SKY/WX    TMP DP  RH WIND       PRES   REMARKS
MCCALL         CLEAR     43  36  76 CALM      30.13S
HAILEY         CLEAR     50  32  50 NW6       30.12R
STANLEY          N/A     33  25  72 CALM      30.22S
SALMON         CLEAR     49  42  77 CALM      30.13R
CHALLIS        PTCLDY    49  36  61 CALM      30.13S
$$

IDZ002-004-006-007-026-201300-
NORTHERN IDAHO


CITY           SKY/WX    TMP DP  RH WIND       PRES   REMARKS
LEWISTON       CLEAR     58  41  53 CALM      30.06S
LOWELL           N/A     51  44  77 NW3       30.13R
COEUR D`ALENE  PTCLDY    50  41  71 CALM      30.07S
MULLAN PASS    CLEAR     50  29  44 CALM      30.18S
$$




USA.gov is the U.S. government's official web portal to all federal, state and local government web resources and services.